Regional Weather Roundup
Issued by NWS Green Bay, WI

Home | Current Version | Previous Version | Text Only | Print | Product List | Glossary On
Versions: 1 2 3 4 5 6 7 8 9 10 11 12 13 14 15 16 17 18 19 20 21 22 23 24 25 26 27 28 29 30 31 32 33 34 35 36 37 38 39 40 41 42 43 44 45 46 47 48
239
ASUS43 KGRB 221200
RWRGRB

NORTH-CENTRAL AND NORTHEAST WISCONSIN REGIONAL WEATHER ROUNDUP
NATIONAL WEATHER SERVICE GREEN BAY WI
700 AM CDT FRI MAY 22 2015

WIZ005-009-010>012-018-019-221300-
NORTH CENTRAL WISCONSIN

CITY           SKY/WX    TMP DP  RH WIND       PRES   REMARKS
IRONWOOD       SUNNY     37  34  87 CALM      30.17R
MANITOWISH WTR NOT AVBL
ARBOR VITAE    NOT AVBL
EAGLE RIVER    NOT AVBL
LAND O LAKES   NOT AVBL
RHINELANDER    SUNNY     41  31  67 CALM      30.19R
PHILLIPS       NOT AVBL
ANTIGO         NOT AVBL
TOMAHAWK       NOT AVBL
MERRILL        NOT AVBL
$$

WIZ013-073-221300-
NORTHEAST WISCONSIN

CITY           SKY/WX    TMP DP  RH WIND       PRES   REMARKS
IRON MOUNTAIN  SUNNY     37  28  70 CALM      30.19R
MARINETTE      SUNNY     39  27  60 N5        30.20R
$$

WIZ017-030-035>037-045-221300-
CENTRAL WISCONSIN

CITY           SKY/WX    TMP DP  RH WIND       PRES   REMARKS
MEDFORD        NOT AVBL
WAUSAU         SUNNY     41  36  82 E6        30.18R
MOSINEE        SUNNY     41  36  81 VRB5      30.20R
MARSHFIELD     SUNNY     46  38  73 E6        30.19R
WISC RAPIDS    SUNNY     45  34  65 E5        30.21R
STEVENS POINT  NOT AVBL
WAUPACA        NOT AVBL
SHAWANO        NOT AVBL
CLINTONVILLE   NOT AVBL
$$

WIZ038-039-048-051-221300-
FOX VALLEY

CITY           SKY/WX    TMP DP  RH WIND       PRES   REMARKS
NWS GREEN BAY  SUNNY     45  38  76 CALM      30.20R
APPLETON       SUNNY     43  32  65 N6        30.20R
OSHKOSH        SUNNY     47  36  65 CALM      30.19R
FOND DU LAC    SUNNY     46  32  58 CALM      30.20R
$$

WIZ022-050-052-221300-
EAST CENTRAL WISCONSIN

CITY           SKY/WX    TMP DP  RH WIND       PRES   REMARKS
STURGEON BAY   SUNNY     45  28  53 N7        30.22R
MANITOWOC      NOT AVBL
SHEBOYGAN      SUNNY     45  34  65 CALM      30.19R
$$

LMZ563-521-522-541>543-221300-
LAKESHORE

STATION/POSITION TIME  TEMP    WIND        PRES    VSBY  WAVE
                       AIR SEA DIR/SP/G                  HT/PER
                 (UTC) (F)     (DEG/KT/KT) (MB)    (MI)  (FT/S)
SHEBOYGAN LKSHOR 1100          340/  6/  7 1022.1R
KEWAUNEE LKSHORE 1100          300/  4/  5 1021.0R
NORTHPORT PIER   1100   45     340/  8/ 10 1021.7R
N MID LAKE BUOY  1050   38 36  320/  6/  8 1022.0R         1/ 3
SISTER BAY LKSHO 1147   44      10/ 11/ 13   N/A
CHAMBERS ISLAND  1100   46     310/  5/  6 1022.4R
MENOMINEE LKSHOR 1100   41     300/  4/  5 1022.5R
$$



USA.gov is the U.S. government's official web portal to all federal, state and local government web resources and services.